STARLINK-3106, 49164

Orbit data source: Space-Track

STARLINK-3106, 49164 is a payload satellite owned by SpaceX/Seattle (US) in LEO that was launched on Tue, 14 Sep 2021 UTC via an FALCON 9 launch vehicle from the Air Force Western Test Range (AFWTR). Payload-class satellites include a variety of spacecraft equipped with specific instruments for various scientific and technological missions. These include communications satellites like Starlink; space stations such as the ISS; scientific satellites like the Hubble; Earth observation satellites from companies like Planet Labs, Umbra, and HawkEye 360; GPS; miniature CubeSats for education and research; and military/defense satellites.

Loading next visibility...
Identifier
49164, 2021-082AL
Orbit
LEO
Country
Flag of USUS
Related business
Manufacturer
SpaceX/Seattle
Mission
Operational Commercial Communications
Bus & Motor
STARLINK, Unknown motor
Mass
297 kg wet, ~275 kg dry
Launch date (UTC)
2021-09-14 (4 years ago)
Launch vehicle
FALCON 9
Launch site
Air Force Western Test Range (AFWTR)
Object type
Payload
Rocket body
Debris
Shape & HBR
Box + 1 Pan, 10.1 m
Radar Cross Section
13.562 m², Large (>1 m²)

Expand to show TLE details & history
Last TLE update: 14 hours ago

TLE from 14 hours ago
0 STARLINK-3106
1 49164U 21082AL  25310.73351338  .00000603  00000-0  58340-4 0  9994
2 49164  70.0024 224.4639 0002689 271.0059  89.0792 14.98333167229225
Epoch: 2025-11-06T17:36Z
TLE epoch observation values (Epoch: 2025-11-06T17:36:15.556Z)
Latitude
Longitude
-85.78851°
Altitude
574.441 km
Speed
7.574 km/s
True Right ascension
14h 57m 51s
True Declination
0° 00' 00"
Sunlit
Object was in daylight at epoch
Visualization orbit readout
Latitude
Unknown
Longitude
Unknown
Altitude
Unknown
Speed
Unknown
Apparent Right ascension
Unknown
Apparent Declination
Unknown
Sunlit
N/A
Visualization observer readout
Local Sidereal Time
03:18:46
Azimuth
Unknown
Elevation
Unknown
Doppler factor
Unknown
Orbital elements
Apogee altitude
571.862 km
Perigee altitude
568.126 km
Semi-major axis
6,948.131 km
Eccentricity
0.00027
Inclination
70.0024°
RAAN
224.4639°
Arg. of periapsis
271.0059°
True anomaly
89.11001°
Mean anomaly
89.0792°
Eccentric anomaly
89.0946°
Mean motion
3.7475 °/min
Orbital period
96.06 mins
BSTAR
0.00005834
Loading maneuver chart data...
Computing Atmospheric mass density...
Loading historical data...
Loading historical data...
Loading historical data...
Loading historical data...
Loading historical data...
Loading historical data...
Loading historical data...

Documentation

Showing up to 5 results
|